Dewpoint
50 41 38 33 16 6 1 1 19 29 36 47 51 50 49 52 47 48 56 62 64 64 64 66 69 69 68 69 69 69 68 68 68 68 67 68 68 68 68 68 66 66 66 65 64 63 65 66 66
44 41 34 24 4 -4 -6 12 16 32 50 52 53 52 51 49 49 56 60 62 65 64 63 63 69 69 69 69 69 69 69 69 68 66 66 67 68 67 67 67 67 66 66 66 64 64 65 66 65
42 34 26 17 5 -6 -2 17 21 39 50 45 50 49 47 47 48 54 58 65 65 65 64 65 68 69 69 69 69 69 69 69 69 68 66 66 68 68 68 67 66 66 66 66 65 65 65 65 65
35 29 24 11 3 9 9 17 20 36 40 45 49 44 41 39 40 46 62 65 64 65 64 66 67 67 66 66 67 67 68 68 68 69 68 66 66 66 67 67 66 67 66 67 67 66 65 65 65
30 23 8 9 8 12 16 19 19 33 33 41 48 43 40 43 40 50 61 63 63 63 64 64 67 67 67 67 67 67 68 68 67 67 68 67 66 67 68 68 67 67 66 66 67 66 65 65 65
23 21 3 -2 2 10 18 19 18 20 25 44 46 41 40 40 39 44 53 58 58 58 56 57 59 60 64 66 67 67 67 67 67 67 67 67 67 68 67 67 67 67 67 66 67 67 65 65 64
19 13 5 7 6 11 17 20 17 17 24 37 44 42 38 37 40 42 42 47 47 49 50 53 54 53 58 60 59 64 66 66 67 66 66 66 66 66 66 66 67 67 66 66 66 66 66 65 65
28 21 14 13 7 10 20 21 20 16 19 40 40 40 37 38 40 41 42 42 42 45 46 45 46 50 52 56 56 59 62 67 66 65 65 65 66 65 65 65 65 65 66 66 65 66 65 65 65
29 15 7 10 14 15 21 20 21 22 20 24 29 37 39 38 39 40 42 41 41 43 43 45 45 45 47 47 47 55 63 65 65 65 65 64 63 63 64 65 65 65 66 66 66 65 65 65 64
18 11 6 19 17 17 20 21 20 20 20 21 27 35 38 37 37 38 38 39 40 42 43 44 46 45 45 43 47 49 53 56 59 61 64 65 65 64 65 64 64 64 64 65 65 65 65 64 62
25 12 21 22 27 26 21 21 23 19 19 20 23 36 36 36 34 33 36 39 41 43 43 44 45 46 44 45 44 44 46 48 50 51 54 58 61 61 61 63 63 64 64 63 64 64 63 63 63
21 24 25 26 28 24 22 24 22 22 19 22 26 37 36 35 30 32 36 40 41 42 44 45 45 45 43 40 39 39 39 41 42 45 48 48 53 58 59 57 59 59 60 60 64 64 64 63 63
24 23 27 28 27 27 27 24 22 23 24 24 35 35 35 30 31 35 37 38 40 42 44 45 44 40 39 38 38 36 35 35 36 39 41 45 47 50 53 56 58 57 57 56 54 56 62 63 64
27 27 26 28 25 25 24 23 25 22 25 27 33 32 30 28 31 36 36 35 37 41 43 44 42 40 40 40 41 40 38 39 39 41 41 41 44 47 50 52 56 58 58 57 55 53 54 60 63
29 24 24 24 26 21 24 16 17 21 24 27 28 27 27 29 33 34 35 34 37 39 39 39 41 41 40 40 40 42 42 40 39 42 43 44 44 46 48 50 51 57 59 59 57 55 55 55 58
21 20 12 19 26 24 19 1 16 22 24 24 24 25 27 29 31 35 35 36 38 37 37 38 38 41 40 40 41 41 42 41 41 42 43 45 45 46 45 47 49 53 55 57 57 56 55 55 54
16 9 8 10 25 23 19 8 17 22 24 23 23 23 25 29 32 35 35 37 37 37 37 38 39 39 41 41 41 42 43 42 42 42 43 45 45 46 45 45 46 49 53 56 57 56 56 52 52
10 6 10 9 20 23 20 16 16 21 22 23 22 22 26 29 31 35 35 37 37 36 38 38 39 41 41 41 41 41 41 42 43 43 43 44 45 46 47 46 47 47 47 53 54 55 55 54 53
15 12 10 12 23 23 20 20 19 18 23 21 23 22 25 28 32 36 36 37 37 38 38 38 40 41 40 40 40 39 40 42 43 44 45 45 46 47 47 47 47 47 46 47 52 53 54 53 54
19 15 14 17 22 21 18 18 18 19 18 21 22 22 24 29 33 36 37 36 36 38 39 40 41 41 42 42 42 43 43 43 44 45 45 46 46 48 47 47 47 46 46 46 49 50 52 53 54
18 13 11 11 20 22 18 9 13 18 19 21 23 23 24 29 32 35 36 35 37 38 40 40 41 41 42 44 44 44 43 43 43 43 44 45 46 46 48 48 48 47 47 46 47 47 49 49 52
20 21 20 18 18 14 16 4 7 9 17 18 21 23 21 28 32 35 35 35 36 40 41 42 41 42 43 44 44 43 42 42 43 43 43 43 44 44 45 47 48 48 48 48 47 46 47 47 48
22 27 23 21 22 20 16 16 2 10 7 14 19 20 23 26 32 35 35 34 36 41 42 42 41 43 44 44 44 42 42 41 41 41 41 42 42 43 43 43 43 44 45 47 48 48 47 47 49
26 21 20 21 22 18 13 10 2 3 6 15 21 21 23 24 32 35 34 35 40 42 42 42 41 43 43 43 42 41 40 40 41 42 42 42 42 43 44 44 44 45 44 44 46 48 48 47 47
23 19 18 17 17 8 12 12 6 10 9 13 16 22 26 25 33 33 34 37 39 41 41 41 42 42 42 41 40 40 40 42 43 42 41 42 41 42 43 44 45 45 45 45 45 46 48 48 47
23 19 17 8 8 8 15 7 3 15 19 21 22 25 28 30 32 32 34 37 40 40 41 41 42 42 41 39 39 40 41 42 43 43 43 43 43 43 43 44 44 44 44 44 46 47 48 49 49
23 20 19 17 15 14 6 11 13 19 20 21 24 28 29 31 31 32 35 38 39 39 40 41 41 41 40 39 38 38 40 41 41 43 43 43 43 42 42 42 42 43 43 44 45 45 46 48 49
25 22 20 20 14 10 9 7 7 15 18 22 24 28 29 28 28 30 36 38 39 40 41 41 41 40 39 38 37 37 39 40 41 42 41 41 41 40 40 40 41 42 42 43 43 43 46 45 47
24 21 21 21 18 15 6 5 15 18 20 21 23 27 27 26 27 31 37 38 39 40 40 40 40 39 39 38 37 38 40 41 41 41 40 40 39 39 40 40 41 41 42 43 42 43 43 45 44
27 23 20 15 14 18 16 12 17 21 22 23 23 26 27 27 27 30 37 38 38 38 39 39 39 39 39 38 37 38 40 41 40 40 39 39 39 39 40 40 40 41 42 43 44 44 45 44 45
Wind_Speed
5 2 1 4 5 4 6 2 1 2 4 1 2 2 1 8 1 1 1 3 4 12 13 14 11 14 12 10 11 12 12 11 11 11 11 10 10 9 9 8 7 8 9 10 9 9 9 10 12
4 2 3 2 6 9 4 1 3 2 3 7 6 4 3 3 4 5 3 5 5 10 12 13 12 12 13 12 11 11 10 11 11 10 10 9 9 8 8 5 5 8 9 11 11 10 9 9 10
2 3 3 3 3 9 5 3 1 4 6 1 3 3 2 4 5 3 7 5 9 11 9 11 12 10 12 12 12 11 10 12 11 11 9 9 8 8 7 6 7 9 8 10 11 11 9 8 8
2 3 1 6 8 4 4 2 1 6 3 1 1 5 4 5 3 5 6 3 11 11 8 12 10 9 7 8 8 8 9 10 10 11 10 8 8 8 6 6 6 7 9 11 11 10 10 9 8
1 1 3 4 5 4 4 2 4 6 3 2 1 4 4 5 5 7 7 9 11 11 10 11 11 9 6 2 3 5 6 7 8 8 7 8 7 7 6 6 6 7 7 8 10 11 10 9 9
1 1 5 7 5 3 4 4 6 5 3 3 2 6 5 4 6 10 8 13 12 12 12 10 13 13 13 12 8 2 5 6 7 7 6 6 6 5 5 5 4 5 7 8 9 10 10 10 9
2 3 4 5 6 5 1 3 6 6 6 6 3 4 6 8 7 8 10 14 13 11 11 9 7 9 12 14 13 10 3 8 7 6 6 5 5 3 3 3 3 5 5 5 7 9 10 11 11
1 2 2 2 5 3 1 2 2 4 4 4 2 5 6 10 9 9 11 12 12 11 11 8 7 8 7 9 12 11 9 5 3 3 4 5 4 2 2 2 2 2 3 3 5 8 11 11 11
1 3 5 3 2 3 0 4 2 0 4 2 1 2 4 16 11 10 11 10 10 10 8 7 7 8 6 8 8 7 7 6 4 6 6 5 3 3 2 4 3 2 3 2 4 7 10 12 11
2 2 2 2 3 4 4 4 4 5 6 4 4 2 11 14 12 10 8 8 8 7 7 6 6 6 7 7 7 8 8 9 9 8 7 5 3 4 2 2 2 2 3 4 5 6 9 12 12
2 2 1 1 3 5 4 4 3 5 7 6 8 12 15 14 10 9 7 6 7 7 7 6 7 7 7 7 6 7 7 7 7 9 8 5 4 4 3 3 1 2 3 4 4 5 8 11 11
3 3 2 1 1 2 3 1 4 7 2 2 3 14 15 13 10 8 8 8 8 8 7 7 7 9 9 8 8 8 8 7 7 8 8 6 4 3 3 2 2 2 2 2 2 3 4 8 11
5 2 2 2 3 4 3 6 6 7 5 2 12 14 14 12 9 8 9 9 9 10 9 8 9 10 10 10 9 9 9 8 7 6 7 5 5 4 3 3 3 2 2 3 3 3 3 5 7
0 3 4 3 3 2 4 5 3 1 3 9 14 13 13 12 11 11 10 11 11 11 11 10 10 9 9 10 9 8 8 7 6 6 7 6 5 5 5 5 4 4 3 3 4 4 4 4 4
1 5 5 5 3 2 2 9 9 2 7 14 14 12 11 10 11 12 12 13 14 13 11 10 9 7 8 8 7 7 7 6 6 5 6 6 6 5 5 5 5 4 4 4 4 4 3 4 4
2 3 5 2 4 2 2 6 1 4 11 15 14 12 10 11 11 11 11 14 14 13 11 9 7 6 7 7 6 6 6 6 5 5 5 5 5 6 6 6 6 5 6 5 5 6 5 5 5
2 5 5 2 3 2 5 4 1 3 10 15 14 11 12 12 10 11 12 13 12 11 10 8 6 6 6 5 5 5 5 5 5 4 4 5 5 6 6 6 7 7 6 5 5 5 6 7 6
3 5 4 5 1 4 6 15 8 5 11 16 15 13 12 15 16 14 13 12 10 8 7 7 6 5 4 4 4 3 3 6 5 5 6 7 6 7 7 6 6 6 7 6 6 8 6 8 7
2 3 6 3 0 4 8 14 13 8 10 16 18 15 15 15 11 15 14 11 10 8 7 6 6 6 6 5 6 4 6 5 5 5 6 7 5 5 6 6 6 6 7 6 7 7 7 8 7
5 8 11 6 1 4 7 15 14 12 17 18 21 18 16 16 14 14 16 14 11 9 8 7 5 4 5 4 3 3 6 4 5 5 7 6 8 7 7 7 7 7 7 8 9 9 9 7 7
8 11 7 6 1 4 10 15 15 10 15 13 18 18 16 19 20 19 17 15 12 11 9 6 5 4 5 5 4 5 4 5 5 9 8 9 9 9 8 8 7 8 8 9 10 11 12 14 11
5 3 5 5 4 5 1 9 6 8 13 16 19 20 19 19 18 18 19 15 13 11 8 7 5 6 6 7 6 8 7 9 8 10 10 11 10 9 8 8 8 8 8 10 12 12 13 14 17
1 1 2 2 4 2 7 6 7 3 11 19 20 21 20 21 22 21 19 15 13 10 7 6 6 6 6 6 7 7 8 8 9 10 12 12 11 11 10 9 9 10 9 11 13 14 14 15 17
8 4 3 2 3 6 10 12 8 10 7 0 0 13 17 20 22 21 16 15 12 9 7 5 5 6 5 5 5 7 9 10 10 10 11 10 9 9 9 10 9 10 11 12 13 14 15 16 16
6 6 3 5 6 8 2 7 12 9 6 7 8 6 12 19 23 23 21 17 13 9 6 5 5 4 4 5 7 8 9 9 10 10 9 11 10 9 9 11 10 11 11 13 13 14 15 16 17
11 6 5 6 4 0 2 7 1 2 9 8 7 5 10 18 22 22 20 17 14 10 6 4 3 2 3 6 8 8 8 7 9 9 11 11 11 11 12 12 11 12 13 12 13 12 14 13 13
5 10 1 0 0 5 6 5 8 2 6 6 2 7 12 17 18 18 15 14 12 9 5 4 3 2 4 7 9 9 8 8 9 10 10 10 12 13 15 15 14 13 12 12 14 12 14 13 14
4 7 4 5 5 7 5 5 6 7 11 6 2 9 12 13 14 14 13 12 8 7 6 2 2 3 4 6 9 9 9 8 9 10 11 12 13 14 15 16 15 14 14 14 14 12 15 17 16
5 6 4 2 3 5 4 3 4 6 10 6 4 11 14 14 14 13 12 10 8 5 4 4 3 4 5 7 9 10 10 10 9 9 11 12 13 14 14 15 15 15 15 14 13 14 14 16 18
4 7 14 10 6 4 2 5 5 5 7 1 6 12 12 13 12 11 11 10 7 4 3 3 3 4 5 7 8 10 10 10 9 10 11 12 13 13 14 15 15 15 15 15 14 16 15 16 16
Wind_Direction
321 329 274 242 241 238 259 224 289 184 187 90 123 245 164 9 135 20 57 40 152 154 149 160 165 153 149 142 130 130 129 128 130 128 129 132 132 134 133 135 144 152 137 123 122 115 109 103 99
320 257 217 218 256 256 259 352 237 147 114 115 113 132 124 94 52 85 123 21 145 159 154 153 151 157 155 153 148 143 147 146 142 138 138 136 135 145 138 140 170 166 162 141 135 126 123 122 119
241 306 240 224 243 271 298 1 301 134 131 124 131 51 69 83 58 35 351 326 167 153 156 130 154 154 165 164 162 164 155 145 148 145 145 145 142 134 139 129 147 152 151 145 139 140 141 141 140
242 194 144 252 256 262 284 336 176 174 196 273 125 103 98 29 22 343 345 356 168 158 143 124 136 139 147 153 163 170 168 159 159 160 154 156 155 152 145 130 128 155 158 158 154 153 153 156 155
352 243 245 270 277 268 242 230 188 181 182 194 208 128 92 71 52 37 53 75 107 95 96 100 79 88 86 124 177 178 175 166 168 161 164 167 168 159 153 149 149 153 163 176 169 165 167 167 166
215 280 257 280 278 291 274 214 192 201 165 157 194 135 108 103 85 54 56 89 80 88 76 71 68 67 63 53 38 350 192 176 174 167 171 183 185 181 178 171 182 189 181 177 182 180 178 180 180
278 263 295 293 303 300 317 180 224 201 178 165 144 160 123 140 104 93 79 90 81 70 75 62 46 63 63 58 49 47 348 207 195 184 173 184 192 196 183 173 192 207 202 195 191 192 190 191 190
45 276 259 258 322 314 57 184 329 231 166 120 174 187 171 156 133 114 97 82 85 80 76 70 81 72 45 63 45 52 29 46 20 153 161 177 173 168 132 175 138 265 225 229 220 207 202 200 194
182 251 292 297 282 18 118 228 151 330 160 192 194 171 116 140 141 132 119 106 100 81 75 78 75 82 93 87 80 91 95 95 113 131 88 152 208 205 194 67 45 2 317 272 256 239 218 205 203
229 245 316 330 314 299 310 249 190 198 181 192 198 138 148 148 154 150 145 131 117 97 80 80 83 81 89 90 88 77 76 67 64 60 64 70 40 59 22 68 35 333 296 263 261 251 222 211 219
179 253 94 295 283 287 272 237 204 224 216 212 214 169 160 157 155 147 128 116 106 96 89 86 100 96 98 88 84 76 71 69 64 57 49 52 59 47 40 41 23 350 346 286 256 233 225 218 225
258 241 239 292 299 278 263 269 231 235 269 354 225 167 158 160 155 147 136 128 116 105 96 96 101 98 91 90 80 77 69 60 54 47 35 28 39 35 20 6 15 3 3 2 326 297 275 245 231
235 268 232 260 259 260 280 254 275 250 230 200 145 161 164 155 144 134 130 123 122 113 106 102 108 102 91 85 79 72 64 55 50 38 32 26 10 0 343 329 312 308 327 323 309 300 270 264 262
149 273 267 253 232 240 259 258 270 203 183 163 161 165 165 160 155 145 150 136 128 122 115 111 98 90 83 79 70 61 52 45 36 30 16 10 1 350 335 320 306 299 302 306 304 314 297 261 251
247 284 255 228 222 221 280 245 238 229 173 170 175 168 168 160 163 166 154 144 139 131 126 118 107 94 82 73 59 54 41 33 28 18 19 5 355 341 318 306 297 290 292 295 271 272 276 257 253
235 260 258 133 188 151 219 274 154 210 181 179 182 175 177 165 169 160 156 147 145 139 133 117 109 92 72 62 47 40 29 19 11 1 352 357 344 332 315 310 299 298 275 269 268 267 265 277 256
222 255 241 249 207 163 221 278 48 198 214 189 188 195 179 163 165 163 158 154 153 146 136 118 99 78 62 43 31 26 20 4 347 337 334 340 323 323 310 304 299 295 283 283 273 266 261 264 253
209 233 230 259 163 226 230 258 255 229 214 221 201 192 197 179 175 164 163 155 147 138 125 114 96 73 53 23 12 13 12 356 350 341 340 330 323 319 314 304 298 293 277 258 257 254 262 264 272
176 230 259 252 180 264 248 267 263 228 219 218 220 209 195 191 172 161 160 153 147 138 135 125 96 55 32 21 6 356 353 344 348 351 342 340 335 327 315 309 307 300 289 279 281 267 252 255 237
229 255 257 258 205 257 274 279 274 227 226 217 208 213 201 178 174 170 163 158 161 142 129 117 90 62 54 34 7 338 331 326 335 341 338 345 336 326 312 301 296 301 297 285 265 251 254 246 229
233 240 248 262 243 234 296 274 243 220 221 215 209 206 203 192 181 173 173 167 154 145 139 118 90 67 48 28 3 351 343 324 328 341 333 335 329 327 322 312 292 289 287 283 280 271 251 255 239
260 239 253 243 228 257 294 281 228 206 223 220 210 205 196 193 190 178 170 168 159 146 134 120 98 64 46 27 13 7 349 334 330 321 319 319 317 313 312 306 302 295 286 279 276 272 265 256 255
257 135 207 243 203 302 216 259 245 201 232 228 217 213 206 193 184 180 176 163 149 143 131 109 87 66 45 28 10 351 336 325 320 317 317 314 311 307 307 304 299 287 280 272 269 267 262 260 253
148 119 101 102 195 242 225 225 256 228 225 151 71 226 210 194 182 174 159 147 142 135 122 91 70 59 32 7 358 345 329 321 321 323 322 327 322 323 321 320 311 301 291 280 275 269 262 260 261
202 181 251 237 212 245 96 219 259 273 293 304 295 256 206 191 176 163 156 154 147 137 119 90 58 54 21 359 352 340 323 317 313 320 327 330 332 331 327 325 317 308 303 289 277 270 266 259 257
195 217 225 271 251 340 137 233 274 23 308 300 286 242 181 176 170 161 156 151 144 135 120 92 68 39 6 356 343 332 320 314 315 319 316 313 315 314 317 314 306 298 295 292 280 273 263 263 258
172 215 13 284 321 273 233 249 271 1 10 357 343 163 165 162 155 147 142 141 138 135 125 132 108 21 3 348 339 331 321 314 312 314 315 311 310 312 312 308 304 301 295 293 289 273 266 257 255
225 147 169 196 234 237 220 258 225 7 350 352 184 171 155 145 141 141 142 139 135 132 135 113 57 28 356 340 336 324 318 316 312 312 312 312 313 313 311 308 304 303 303 300 288 279 277 264 255
172 210 220 262 229 259 269 169 111 13 353 329 194 176 163 156 155 152 148 145 143 147 135 106 53 11 1 346 337 329 321 319 316 312 315 315 315 315 313 313 310 307 304 300 289 272 267 267 265
262 246 217 233 219 233 282 248 133 9 348 307 174 174 171 164 161 157 159 158 157 142 125 93 56 2 337 328 325 326 320 317 317 320 323 319 315 317 315 315 312 307 303 300 291 277 267 262 262